AAL9 KDCA-KPWM

Flight info

Callsign AAL9
Flight time N/A
Altitude 37000
Route SOOKI6 SWANN BROSS Q419 RBV Q22 LLUND BDR SCOGS3
Aircraft B738/M-SABDFGLRVWY/LB2

Departure

Time 2026-05-03 21:36
Airport Ronald Reagan Washington National Airport (KDCA)

Arrival

Time N/A
Airport Portland International Jetport (KPWM)
Time Latitude Longitude Altitude Speed Heading
2026-05-03 20:15 38.85478 -77.04140 24 ft 0 kts 175°
2026-05-03 21:17 38.85488 -77.04140 24 ft 2 kts 169°
2026-05-03 21:17 38.85501 -77.04149 24 ft 2 kts 137°
2026-05-03 21:18 38.85510 -77.04164 24 ft 2 kts 111°
2026-05-03 21:18 38.85513 -77.04183 25 ft 2 kts 86°
2026-05-03 21:18 38.85511 -77.04194 25 ft 1 kts 71°
2026-05-03 21:18 38.85509 -77.04200 25 ft 0 kts 71°
2026-05-03 21:22 38.85512 -77.04192 25 ft 3 kts 71°
2026-05-03 21:22 38.85524 -77.04143 24 ft 6 kts 73°
2026-05-03 21:23 38.85535 -77.04098 24 ft 2 kts 73°
2026-05-03 21:23 38.85539 -77.04080 24 ft 1 kts 73°
2026-05-03 21:23 38.85543 -77.04063 23 ft 1 kts 73°
2026-05-03 21:23 38.85552 -77.04018 23 ft 7 kts 78°
2026-05-03 21:24 38.85526 -77.03959 23 ft 10 kts 156°
2026-05-03 21:24 38.85453 -77.03946 23 ft 9 kts 175°
2026-05-03 21:24 38.85390 -77.03939 23 ft 8 kts 175°
2026-05-03 21:24 38.85330 -77.03934 24 ft 10 kts 176°
2026-05-03 21:25 38.85257 -77.03926 23 ft 10 kts 175°
2026-05-03 21:25 38.85189 -77.03919 23 ft 9 kts 175°
2026-05-03 21:25 38.85128 -77.03914 23 ft 8 kts 176°
2026-05-03 21:25 38.85062 -77.03907 23 ft 10 kts 175°
2026-05-03 21:26 38.84994 -77.03901 22 ft 9 kts 176°
2026-05-03 21:26 38.84930 -77.03894 22 ft 8 kts 174°
2026-05-03 21:26 38.84871 -77.03887 22 ft 8 kts 175°
2026-05-03 21:26 38.84803 -77.03882 22 ft 10 kts 176°
2026-05-03 21:27 38.84730 -77.03873 21 ft 10 kts 174°
2026-05-03 21:27 38.84654 -77.03862 20 ft 11 kts 174°
2026-05-03 21:27 38.84576 -77.03854 20 ft 12 kts 177°
2026-05-03 21:27 38.84490 -77.03850 19 ft 11 kts 178°
2026-05-03 21:28 38.84410 -77.03845 19 ft 11 kts 177°
2026-05-03 21:28 38.84336 -77.03836 18 ft 10 kts 181°
2026-05-03 21:28 38.84272 -77.03863 18 ft 9 kts 206°
2026-05-03 21:28 38.84220 -77.03872 18 ft 3 kts 146°
2026-05-03 21:29 38.84217 -77.03863 18 ft 0 kts 109°
2026-05-03 21:32 38.84216 -77.03863 18 ft 0 kts 108°
2026-05-03 21:33 38.84216 -77.03859 18 ft 3 kts 99°
2026-05-03 21:33 38.84240 -77.03825 18 ft 8 kts 42°
2026-05-03 21:33 38.84267 -77.03791 18 ft 0 kts 52°
2026-05-03 21:34 38.84270 -77.03778 18 ft 5 kts 87°
2026-05-03 21:34 38.84264 -77.03731 18 ft 5 kts 99°
2026-05-03 21:34 38.84277 -77.03691 18 ft 5 kts 22°
2026-05-03 21:34 38.84304 -77.03690 18 ft 0 kts 354°
2026-05-03 21:35 38.84340 -77.03693 18 ft 29 kts 355°
2026-05-03 21:35 38.84806 -77.03741 21 ft 103 kts 354°
2026-05-03 21:36 38.85741 -77.03833 41 ft 160 kts 350°
2026-05-03 21:36 38.86866 -77.03925 598 ft 168 kts 345°
2026-05-03 21:36 38.87857 -77.04472 1464 ft 156 kts 319°
2026-05-03 21:36 38.88607 -77.05466 2037 ft 162 kts 310°
2026-05-03 21:37 38.89433 -77.06516 2536 ft 173 kts 317°
2026-05-03 21:37 38.90302 -77.07623 3014 ft 184 kts 306°
2026-05-03 21:37 38.90939 -77.09100 3481 ft 197 kts 296°
2026-05-03 21:37 38.91603 -77.10721 3906 ft 215 kts 305°
2026-05-03 21:38 38.92762 -77.12072 4398 ft 233 kts 327°
2026-05-03 21:38 38.94207 -77.13123 4996 ft 246 kts 329°
2026-05-03 21:38 38.95768 -77.14079 5647 ft 256 kts 335°
2026-05-03 21:38 38.97518 -77.14672 6386 ft 265 kts 353°
2026-05-03 21:39 38.99349 -77.14359 7198 ft 274 kts 16°
2026-05-03 21:39 39.01023 -77.13200 8000 ft 281 kts 31°
2026-05-03 21:39 39.02583 -77.11641 8786 ft 286 kts 37°
2026-05-03 21:39 39.03878 -77.09698 9543 ft 296 kts 55°
2026-05-03 21:40 39.04607 -77.07208 10290 ft 306 kts 73°
2026-05-03 21:40 39.04992 -77.04444 10697 ft 323 kts 77°
2026-05-03 21:40 39.05345 -77.01489 11112 ft 340 kts 78°
2026-05-03 21:40 39.05707 -76.98473 11504 ft 355 kts 77°
2026-05-03 21:41 39.06103 -76.95245 11884 ft 372 kts 77°
2026-05-03 21:41 39.06524 -76.91890 12267 ft 388 kts 77°
2026-05-03 21:41 39.06959 -76.88448 12838 ft 397 kts 77°
2026-05-03 21:41 39.07408 -76.84901 13516 ft 404 kts 77°
2026-05-03 21:42 39.07859 -76.81329 14217 ft 410 kts 77°
2026-05-03 21:42 39.08317 -76.77692 14974 ft 415 kts 77°
2026-05-03 21:42 39.08776 -76.74037 15732 ft 419 kts 77°
2026-05-03 21:42 39.09268 -76.70304 16438 ft 425 kts 77°
2026-05-03 21:43 39.09792 -76.66549 17118 ft 431 kts 76°
2026-05-03 21:43 39.10332 -76.62772 17818 ft 436 kts 76°
2026-05-03 21:43 39.10890 -76.58890 18488 ft 442 kts 76°
2026-05-03 21:43 39.11443 -76.55033 19127 ft 448 kts 76°
2026-05-03 21:44 39.11999 -76.51092 19842 ft 452 kts 76°
2026-05-03 21:44 39.12517 -76.47069 20503 ft 457 kts 77°
2026-05-03 21:44 39.12991 -76.43031 21143 ft 462 kts 78°
2026-05-03 21:44 39.13450 -76.38913 21775 ft 467 kts 78°
2026-05-03 21:45 39.13895 -76.34821 22388 ft 472 kts 79°
2026-05-03 21:45 39.14357 -76.30553 22958 ft 477 kts 79°
2026-05-03 21:45 39.14817 -76.26308 23522 ft 482 kts 79°
2026-05-03 21:45 39.15279 -76.22058 24106 ft 486 kts 79°
2026-05-03 21:46 39.15755 -76.17760 24663 ft 490 kts 79°
2026-05-03 21:46 39.16244 -76.13423 25167 ft 495 kts 78°
2026-05-03 21:46 39.16744 -76.09035 25675 ft 499 kts 78°
2026-05-03 21:46 39.17258 -76.04546 26146 ft 504 kts 78°
2026-05-03 21:47 39.17775 -76.00060 26638 ft 508 kts 78°
2026-05-03 21:47 39.18444 -75.95606 27057 ft 510 kts 73°
2026-05-03 21:47 39.19503 -75.91258 27506 ft 509 kts 64°
2026-05-03 21:47 39.21020 -75.87176 27962 ft 506 kts 54°
2026-05-03 21:48 39.22963 -75.83450 28422 ft 501 kts 45°
2026-05-03 21:48 39.25303 -75.80105 28851 ft 497 kts 37°
2026-05-03 21:48 39.27885 -75.77126 29265 ft 496 kts 32°
2026-05-03 21:48 39.30572 -75.74360 29680 ft 497 kts 30°
2026-05-03 21:49 39.33311 -75.71655 30156 ft 497 kts 30°
2026-05-03 21:49 39.36039 -75.68962 30802 ft 494 kts 30°
2026-05-03 21:49 39.38758 -75.66231 30977 ft 498 kts 31°
2026-05-03 21:49 39.41479 -75.63428 30990 ft 496 kts 31°
2026-05-03 21:50 39.46824 -75.57732 30999 ft 495 kts 32°
2026-05-03 21:50 39.52097 -75.51964 30992 ft 495 kts 33°
2026-05-03 21:51 39.57308 -75.46206 30990 ft 493 kts 33°
2026-05-03 21:51 39.62519 -75.40426 30996 ft 493 kts 33°
2026-05-03 21:52 39.67700 -75.34669 30981 ft 491 kts 34°
2026-05-03 21:52 39.72920 -75.28864 30981 ft 492 kts 34°
2026-05-03 21:53 39.78086 -75.23090 30977 ft 491 kts 35°
2026-05-03 21:53 39.82932 -75.16767 30981 ft 500 kts 41°
2026-05-03 21:54 39.87519 -75.09937 30972 ft 501 kts 43°
2026-05-03 21:54 39.92005 -75.03062 30959 ft 498 kts 43°
2026-05-03 21:55 39.96472 -74.96177 30947 ft 499 kts 45°
2026-05-03 21:55 40.00585 -74.88822 30959 ft 503 kts 50°
2026-05-03 21:56 40.04435 -74.81197 30957 ft 504 kts 51°
2026-05-03 21:56 40.08225 -74.73541 30948 ft 503 kts 51°
2026-05-03 21:57 40.12043 -74.65868 30948 ft 504 kts 51°
2026-05-03 21:57 40.15871 -74.58231 30949 ft 503 kts 51°
2026-05-03 21:58 40.19904 -74.50747 30940 ft 496 kts 44°
2026-05-03 21:58 40.24671 -74.44401 30934 ft 487 kts 34°
2026-05-03 21:59 40.29911 -74.38728 30936 ft 486 kts 31°
2026-05-03 21:59 40.35189 -74.33285 30934 ft 481 kts 32°
2026-05-03 22:00 40.40421 -74.27841 30930 ft 481 kts 32°
2026-05-03 22:00 40.45669 -74.22287 30927 ft 483 kts 33°
2026-05-03 22:01 40.50849 -74.16740 30928 ft 483 kts 33°
2026-05-03 22:01 40.56012 -74.11175 30930 ft 483 kts 33°
2026-05-03 22:02 40.61237 -74.05525 30918 ft 483 kts 33°
2026-05-03 22:02 40.66395 -73.99934 30916 ft 484 kts 33°
2026-05-03 22:03 40.71606 -73.94273 30908 ft 483 kts 33°
2026-05-03 22:03 40.76774 -73.88648 30915 ft 482 kts 33°
2026-05-03 22:04 40.81942 -73.82995 30905 ft 485 kts 35°
2026-05-03 22:04 40.86689 -73.76645 30908 ft 493 kts 45°
2026-05-03 22:05 40.90665 -73.69216 30899 ft 497 kts 53°
2026-05-03 22:05 40.94233 -73.61407 30902 ft 498 kts 55°
2026-05-03 22:06 40.97722 -73.53497 30896 ft 499 kts 55°
2026-05-03 22:06 41.01214 -73.45612 30892 ft 499 kts 54°
2026-05-03 22:07 41.04756 -73.37685 30896 ft 500 kts 54°
2026-05-03 22:07 41.08281 -73.29842 30898 ft 499 kts 55°
2026-05-03 22:08 41.11803 -73.22007 30895 ft 498 kts 55°
2026-05-03 22:08 41.15369 -73.14067 30892 ft 499 kts 54°
2026-05-03 22:09 41.18961 -73.06194 30894 ft 499 kts 53°
2026-05-03 22:10 41.24466 -72.94531 30892 ft 498 kts 53°
2026-05-03 22:10 41.28135 -72.86767 30886 ft 497 kts 53°
2026-05-03 22:11 41.31794 -72.78973 30883 ft 496 kts 53°
2026-05-03 22:11 41.35426 -72.71193 30883 ft 495 kts 53°
2026-05-03 22:12 41.39044 -72.63416 30882 ft 497 kts 54°
2026-05-03 22:12 41.42650 -72.55637 30876 ft 496 kts 54°
2026-05-03 22:13 41.46269 -72.47809 30874 ft 496 kts 54°
2026-05-03 22:13 41.49863 -72.40014 30869 ft 497 kts 54°
2026-05-03 22:14 41.53243 -72.32667 30868 ft 497 kts 54°